Starlink 30369

operational
NORAD ID: 57781 Int'l Des: 2023-134 Owner: SPXS Country: US Constellation: starlink
LEOCIRCULAR

Starlink 30369について

説明を読み込み中...

リアルタイム位置

3D地球を読み込み中...

次回通過

高度履歴

Altitude vs Time

uPlot chart will show altitude changes over time

軌道要素

1 57781U 23134L 25351.54486425 .00000350 00000-0 40992-4 0 9991
2 57781 43.0026 283.9274 0001201 276.1719 83.8987 15.02536183127116
Epoch: Dec 17, 2025 • Age: 20 hours

現在のステータス

高度 562.2 km
速度 7.59 km/s
衛星直下点 39.17°N, 178.87°W
打ち上げ日 Sep 4, 2023
運用期間 2.2 years
タイプ internet

技術仕様

分類 Payload
質量 730.00 kg
乾燥質量 700.00 kg
総質量 730.00 kg
長さ 0.30 m
直径 4.10 m
スパン 29.00 m
形状 Box + pan
製造者 SPXS
バスタイプ Starlink V2M
フェーズステータス In Orbit
所有者/国 SPXS/US

大規模コンステレーション

Loading constellations...